Overview Statistics Trail Chart Weather Telemetry Raw packets
 

This is the latest recevied weather packets stored in our database for station/object KY0TEQ-13. If no packets are shown the sender has not sent any weather packets the latest 10 day(s).

<< 28 29 30 31 32 33 34 >>
Time Temp. Humidity Pressure Rain* Wind** Luminosity Snow
1788495321 15° C 48% 1306.6 hPa 0 mm - 0 W/m² -
1788495017 15° C 48% 1306.7 hPa 0 mm - 0 W/m² -
1788494717 15° C 49% 1306.7 hPa 0 mm - 0 W/m² -
1788494414 15° C 49% 1306.6 hPa 0 mm - 0 W/m² -
1788494109 15° C 49% 1306.7 hPa 0 mm - 0 W/m² -
1788493808 15.56° C 48% 1306.7 hPa 0 mm - 0 W/m² -
1788493503 15.56° C 46% 1306.6 hPa 0 mm - 0 W/m² -
1788493198 16.67° C 44% 1306.6 hPa 0 mm - 0 W/m² -
1788492894 17.22° C 41% 1306.5 hPa 0 mm - 0 W/m² -
1788492591 17.22° C 42% 1306.7 hPa 0 mm - 0 W/m² -
1788492285 17.78° C 41% 1306.7 hPa 0 mm - 0 W/m² -
1788491984 17.78° C 40% 1306.5 hPa 0 mm - 0 W/m² -
1788491685 17.78° C 41% 1306.5 hPa 0 mm - 0 W/m² -
1788491381 17.78° C 41% 1306.6 hPa 0 mm - 0 W/m² -
1788491076 17.22° C 43% 1306.6 hPa 0 mm - 0 W/m² -
1788490772 17.22° C 45% 1306.6 hPa 0 mm - 0 W/m² -
1788490468 17.78° C 42% 1306.5 hPa 0 mm - 0 W/m² -
1788490162 18.33° C 42% 1306.3 hPa 0 mm - 0 W/m² -
1788489858 17.78° C 42% 1306.5 hPa 0 mm - 0 W/m² -
1788489554 18.33° C 43% 1306.2 hPa 0 mm - 0 W/m² -
1788489250 18.33° C 40% 1306.2 hPa 0 mm - 0 W/m² -
1788488949 17.78° C 43% 1306.2 hPa 0 mm - 0 W/m² -
1788488646 20.56° C 39% 1306.2 hPa 0 mm - 0 W/m² -
1788488342 20° C 36% 1306.3 hPa 0 mm - 0 W/m² -
1788488037 20° C 37% 1306.2 hPa 0 mm - 0 W/m² -

* Rain latest hour (hover to see other rain measurements)
** Current wind speed in m/s (hover to see current wind gust speed)